Daviess Cnty AP, Washington,, IN

2:57 PM EST on December 05, 2019 (GMT -0500)
Daviess County

Weather History for KDCY - October, 2019

Change the Weather History Date:

Friday, October 11, 2019

  Actual Average (KLWV) Record (KLWV)
Temperature  
Mean Temperature 57 °F -  
Max Temperature 72 °F 68 °F 89 °F (2010)
Min Temperature 41 °F 44 °F 33 °F (2000)
Degree Days  
Heating Degree Days 8    
Growing Degree Days 7 (Base 50)    
Moisture  
Dew Point 58 °F    
Average Humidity 93    
Maximum Humidity 100    
Minimum Humidity 75    
Precipitation  
Precipitation 0.69 in - - ()
Sea Level Pressure  
Sea Level Pressure 30.00 in    
Wind  
Wind Speed 9 mph (SSW)    
Max Wind Speed 17 mph    
Max Gust Speed 26 mph    
Visibility 8 miles    
Events Rain , Thunderstorm    
Averages and records for this station are not official NWS values.
T = Trace of Precipitation, MM = Missing Value Source: NWS Daily Summary

Daily Weather History Graph

Daily Weather History Graph

Search for Another Location

Airport or City:

Astronomy

Oct. 11, 2019 Rise Set
Actual Time 7:53 AM EDT 7:16 PM EDT
Civil Twilight 7:26 AM EDT 7:42 PM EDT
Nautical Twilight 6:56 AM EDT 8:13 PM EDT
Astronomical Twilight 6:25 AM EDT 8:44 PM EDT
Moon 6:43 PM EDT (10/11) 5:36 AM EDT (10/11)
Length of Visible Light 12h 15m
Length of Day
11h 22m
Waxing Gibbous, 96% of the Moon is Illuminated
Oct 11
Waxing Gibbous
Oct 13
Full
Oct 21
Last Quarter
Oct 27
New
Nov 4
First Quarter

Hourly Weather History & Observations

Time (EDT) Temp. Windchill Dew Point Humidity Pressure Visibility Wind Dir Wind Speed Gust Speed Precip Events Conditions
12:15 AM 72.0 °F - 63.5 °F 75% 29.99 in 10.0 mi South 8.1 mph - N/A   Overcast
12:35 AM 70.9 °F - 63.1 °F 76% 29.99 in 10.0 mi South 6.9 mph - N/A   Scattered Clouds
12:55 AM 70.7 °F - 63.5 °F 78% 29.99 in 10.0 mi South 6.9 mph - N/A   Mostly Cloudy
1:15 AM 70.2 °F - 63.3 °F 79% 29.99 in 10.0 mi South 8.1 mph - N/A   Overcast
1:35 AM 68.9 °F - 63.0 °F 81% 29.98 in 10.0 mi South 8.1 mph - N/A   Scattered Clouds
1:55 AM 68.4 °F - 63.1 °F 83% 29.97 in 10.0 mi South 6.9 mph - N/A   Scattered Clouds
2:15 AM 68.0 °F - 63.3 °F 85% 29.97 in 10.0 mi SSE 9.2 mph - N/A   Scattered Clouds
2:35 AM 67.5 °F - 63.5 °F 87% 29.97 in 10.0 mi SSE 6.9 mph - N/A   Scattered Clouds
2:55 AM 67.3 °F - 63.5 °F 88% 29.96 in 10.0 mi SSE 8.1 mph - N/A   Scattered Clouds
3:15 AM 68.4 °F - 63.5 °F 84% 29.96 in 10.0 mi South 8.1 mph - N/A   Mostly Cloudy
3:35 AM 68.4 °F - 63.5 °F 84% 29.95 in 10.0 mi South 8.1 mph - N/A   Scattered Clouds
3:55 AM 68.5 °F - 63.5 °F 84% 29.95 in 10.0 mi SSE 8.1 mph - N/A   Mostly Cloudy
4:15 AM 68.9 °F - 63.5 °F 83% 29.94 in 10.0 mi SSE 8.1 mph - N/A   Mostly Cloudy
4:35 AM 68.4 °F - 63.1 °F 83% 29.94 in 10.0 mi South 9.2 mph - N/A   Scattered Clouds
4:55 AM 68.4 °F - 63.1 °F 83% 29.94 in 10.0 mi South 9.2 mph - N/A   Scattered Clouds
5:15 AM 68.4 °F - 63.0 °F 83% 29.94 in 10.0 mi SSE 10.4 mph - N/A   Clear
5:35 AM 68.7 °F - 62.8 °F 81% 29.94 in 10.0 mi South 9.2 mph - N/A   Scattered Clouds
5:55 AM 68.5 °F - 62.6 °F 81% 29.94 in 10.0 mi SSE 9.2 mph - N/A   Scattered Clouds
6:15 AM 68.7 °F - 62.6 °F 81% 29.95 in 10.0 mi South 9.2 mph - N/A   Scattered Clouds
6:35 AM 68.9 °F - 62.6 °F 80% 29.97 in 10.0 mi South 11.5 mph - N/A Rain , Thunderstorm Rain
6:55 AM 67.6 °F - 63.7 °F 87% 29.98 in 10.0 mi SW 11.5 mph - N/A Rain Light Rain
7:15 AM 66.4 °F - 66.2 °F 99% 29.98 in 7.0 mi SW 10.4 mph 16.1 mph 0.04 in Rain Rain
7:35 AM 65.8 °F - 65.7 °F 99% 29.99 in 4.0 mi SSW 6.9 mph - 0.23 in Rain Rain
7:55 AM 65.8 °F - 65.7 °F 99% 29.98 in 5.0 mi South 5.8 mph - 0.30 in Rain Rain
8:15 AM 65.3 °F - 65.3 °F 100% 29.97 in 5.0 mi SE 6.9 mph - 0.05 in Rain Rain
8:30 AM 65.3 °F - 64.9 °F 99% 29.96 in 3.0 mi SE 9.2 mph - 0.19 in Rain Heavy Rain
8:55 AM 64.9 °F - 64.8 °F 99% 29.98 in 10.0 mi South 10.4 mph - 0.23 in   Drizzle
9:15 AM 65.3 °F - 65.3 °F 100% 29.97 in 7.0 mi South 9.2 mph - 0.02 in Rain Light Rain
9:35 AM 65.7 °F - 65.3 °F 99% 29.97 in 10.0 mi SSE 9.2 mph - 0.03 in Rain Light Rain
9:55 AM 65.7 °F - 65.5 °F 99% 29.97 in 10.0 mi SSE 8.1 mph - 0.03 in   Overcast
10:15 AM 66.2 °F - 65.8 °F 99% 29.97 in 10.0 mi SSE 10.4 mph - N/A   Overcast
10:30 AM 66.2 °F - 66.2 °F 100% 29.97 in 10.0 mi SSE 10.4 mph 16.1 mph N/A   Overcast
10:55 AM 66.4 °F - 66.2 °F 99% 29.97 in 10.0 mi South 11.5 mph - N/A   Overcast
11:15 AM 66.7 °F - 66.6 °F 99% 29.97 in 10.0 mi South 12.7 mph - N/A   Overcast
11:35 AM 66.4 °F - 66.2 °F 99% 29.97 in 7.0 mi South 12.7 mph - 0.01 in Rain Light Rain
11:50 AM 66.0 °F - 65.7 °F 99% 29.97 in 4.0 mi South 11.5 mph - 0.11 in Rain Rain
12:15 PM 67.1 °F - 66.7 °F 99% 29.96 in 10.0 mi South 12.7 mph - N/A   Overcast
12:35 PM 67.8 °F - 67.3 °F 98% 29.96 in 10.0 mi South 10.4 mph - N/A   Overcast
12:55 PM 67.3 °F - 67.1 °F 99% 29.95 in 10.0 mi South 11.5 mph - N/A Rain Light Rain
1:15 PM 67.3 °F - 66.6 °F 98% 29.95 in 10.0 mi South 10.4 mph 19.6 mph N/A Rain Light Rain
1:35 PM 67.1 °F - 66.7 °F 99% 29.95 in 10.0 mi South 12.7 mph - N/A Rain Rain
1:55 PM 67.3 °F - 67.1 °F 99% 29.94 in 10.0 mi South 11.5 mph - N/A   Drizzle
2:15 PM 67.6 °F - 67.3 °F 99% 29.92 in 10.0 mi South 9.2 mph 17.3 mph N/A   Overcast
2:35 PM 68.0 °F - 67.1 °F 97% 29.92 in 10.0 mi South 10.4 mph - N/A   Overcast
2:55 PM 67.6 °F - 67.3 °F 99% 29.90 in 10.0 mi South 10.4 mph - N/A   Overcast
3:15 PM 67.5 °F - 67.1 °F 99% 29.90 in 10.0 mi South 8.1 mph - N/A Rain Rain
3:35 PM 58.5 °F - 58.3 °F 99% 29.92 in 3.0 mi WNW 16.1 mph 26.5 mph N/A Rain Rain
3:55 PM 56.8 °F - 56.7 °F 99% 29.94 in 2.0 mi West 11.5 mph 19.6 mph 0.01 in   Heavy Drizzle
4:15 PM 55.4 °F - 55.2 °F 99% 29.95 in 2.5 mi WNW 12.7 mph - 0.01 in   Drizzle
4:35 PM 53.2 °F - 53.1 °F 99% 29.96 in 2.5 mi WNW 15.0 mph 19.6 mph 0.01 in   Light Drizzle
4:55 PM 52.0 °F - 51.8 °F 99% 29.98 in 2.0 mi West 12.7 mph 16.1 mph 0.01 in   Drizzle
5:15 PM 50.9 °F - 50.7 °F 99% 30.01 in 1.8 mi WNW 11.5 mph 20.7 mph N/A   Drizzle
5:35 PM 50.0 °F - 49.6 °F 99% 30.03 in 2.0 mi WNW 15.0 mph 21.9 mph N/A   Drizzle
5:55 PM 48.9 °F - 48.7 °F 99% 30.04 in 2.5 mi WNW 17.3 mph 24.2 mph N/A   Drizzle
6:30 PM 47.5 °F - 47.3 °F 99% 30.05 in 10.0 mi NW 13.8 mph 17.3 mph N/A   Overcast
6:50 PM 46.9 °F - 46.8 °F 99% 30.07 in 2.0 mi NW 13.8 mph 19.6 mph N/A Rain Rain
7:15 PM 46.4 °F 41.1 °F 46.4 °F 100% 30.07 in 3.0 mi WNW 11.5 mph 21.9 mph N/A   Drizzle
7:35 PM 45.5 °F 40.3 °F 45.5 °F 100% 30.10 in 5.0 mi NW 10.4 mph 19.6 mph N/A   Light Drizzle
7:55 PM 45.1 °F 40.3 °F 45.0 °F 99% 30.10 in 10.0 mi NNW 9.2 mph - N/A   Overcast
8:15 PM 44.8 °F 39.4 °F 44.6 °F 99% 30.11 in 10.0 mi NW 10.4 mph - N/A   Overcast
8:35 PM 44.6 °F 38.1 °F 44.6 °F 100% 30.11 in 10.0 mi NW 13.8 mph 18.4 mph N/A   Overcast
8:55 PM 44.6 °F 39.2 °F 43.0 °F 94% 30.12 in 10.0 mi NW 10.4 mph 16.1 mph N/A   Overcast
9:15 PM 44.6 °F 38.8 °F 42.8 °F 93% 30.12 in 10.0 mi NW 11.5 mph 17.3 mph N/A   Overcast
9:35 PM 44.6 °F 38.8 °F 43.3 °F 95% 30.13 in 10.0 mi NW 11.5 mph 16.1 mph N/A   Overcast
9:55 PM 44.6 °F 39.7 °F 42.3 °F 91% 30.14 in 10.0 mi NW 9.2 mph 17.3 mph N/A   Overcast
10:15 PM 44.6 °F 39.2 °F 42.1 °F 91% 30.14 in 10.0 mi NW 10.4 mph 17.3 mph N/A   Overcast
10:35 PM 44.6 °F 39.2 °F 41.9 °F 90% 30.14 in 10.0 mi WNW 10.4 mph - N/A   Overcast
10:55 PM 44.4 °F 39.0 °F 40.6 °F 87% 30.15 in 10.0 mi WNW 10.4 mph - N/A   Overcast
11:15 PM 43.2 °F 37.4 °F 37.8 °F 81% 30.17 in 10.0 mi NW 10.4 mph 19.6 mph N/A   Mostly Cloudy
11:35 PM 42.3 °F 36.8 °F 37.2 °F 82% 30.17 in 10.0 mi NW 9.2 mph - N/A   Clear
11:55 PM 41.4 °F 36.8 °F 37.0 °F 85% 30.17 in 10.0 mi NW 6.9 mph - N/A   Clear